Sturgis, MI

10:02 AM EDT on July 25, 2017 (GMT -0400)
Kirsch Municipal

Weather History for KIRS - April, 2013

Change the Weather History Date:

Saturday, April 6, 2013

  Actual Average (KHAI) Record (KHAI)
Temperature  
Mean Temperature 46 °F -  
Max Temperature 60 °F 54 °F 82 °F (1988)
Min Temperature 33 °F 32 °F 16 °F (1982)
Degree Days  
Heating Degree Days 18    
Moisture  
Dew Point 26 °F    
Average Humidity 46    
Maximum Humidity 70    
Minimum Humidity 29    
Precipitation  
Precipitation 0.00 in - - ()
Sea Level Pressure  
Sea Level Pressure 30.00 in    
Wind  
Wind Speed 10 mph (SSE)    
Max Wind Speed 23 mph    
Max Gust Speed 32 mph    
Visibility 10 miles    
Events      
Averages and records for this station are not official NWS values.
T = Trace of Precipitation, MM = Missing Value Source: NWS Daily Summary

Daily Weather History Graph

Daily Weather History Graph

Search for Another Location

Airport or City:

Trip Planner

Search our weather history database for the weather conditions in past years. The results will help you decide how hot, cold, wet, or windy it might be!

Date:

Astronomy

Apr. 06, 2013 Rise Set
Actual Time 7:15 AM EDT 8:13 PM EDT
Civil Twilight 6:47 AM EDT 8:41 PM EDT
Nautical Twilight 6:13 AM EDT 9:15 PM EDT
Astronomical Twilight 5:38 AM EDT 9:50 PM EDT
Moon 5:02 AM EDT (4/6) 4:38 PM EDT (4/6)
Length of Visible Light 13h 53m
Length of Day
12h 57m
Waning Crescent, 15% of the Moon is Illuminated
Apr 6
Waning Crescent
Apr 10
New
Apr 18
First Quarter
Apr 25
Full
May 2
Last Quarter

Hourly Weather History & Observations

Time (EDT) Temp. Windchill Dew Point Humidity Pressure Visibility Wind Dir Wind Speed Gust Speed Precip Events Conditions
12:15 AM 33.8 °F - 23.0 °F 65% 30.15 in 10.0 mi Calm Calm - N/A   Scattered Clouds
12:34 AM 35.6 °F - 23.0 °F 60% 30.15 in 10.0 mi Calm Calm - N/A   Scattered Clouds
12:54 AM 33.8 °F - 24.8 °F 70% 30.16 in 10.0 mi Calm Calm - N/A   Scattered Clouds
1:15 AM 33.8 °F - 24.8 °F 70% 30.15 in 10.0 mi Calm Calm - N/A   Mostly Cloudy
1:35 AM 33.8 °F 30.8 °F 24.8 °F 70% 30.16 in 10.0 mi East 3.5 mph - N/A   Overcast
1:54 AM 35.6 °F 31.7 °F 24.8 °F 65% 30.15 in 10.0 mi East 4.6 mph - N/A   Overcast
2:15 AM 35.6 °F 29.2 °F 23.0 °F 60% 30.15 in 10.0 mi ESE 8.1 mph - N/A   Overcast
2:34 AM 37.4 °F 31.4 °F 21.2 °F 52% 30.16 in 10.0 mi SE 8.1 mph - N/A   Overcast
2:54 AM 37.4 °F 32.1 °F 21.2 °F 52% 30.15 in 10.0 mi ESE 6.9 mph - N/A   Scattered Clouds
3:15 AM 35.6 °F 28.6 °F 21.2 °F 56% 30.15 in 10.0 mi ESE 9.2 mph 16.1 mph N/A   Scattered Clouds
3:34 AM 35.6 °F 29.9 °F 21.2 °F 56% 30.15 in 10.0 mi ESE 6.9 mph - N/A   Scattered Clouds
3:55 AM 35.6 °F 29.2 °F 21.2 °F 56% 30.15 in 10.0 mi SE 8.1 mph - N/A   Scattered Clouds
4:14 AM 35.6 °F 29.2 °F 23.0 °F 60% 30.16 in 10.0 mi SE 8.1 mph - N/A   Mostly Cloudy
4:34 AM 35.6 °F 29.9 °F 23.0 °F 60% 30.15 in 10.0 mi SE 6.9 mph - N/A   Scattered Clouds
4:55 AM 35.6 °F 30.7 °F 23.0 °F 60% 30.16 in 10.0 mi SE 5.8 mph - N/A   Mostly Cloudy
5:15 AM 35.6 °F 28.6 °F 23.0 °F 60% 30.15 in 10.0 mi SE 9.2 mph - N/A   Mostly Cloudy
5:35 AM 35.6 °F 27.1 °F 23.0 °F 60% 30.15 in 10.0 mi SE 12.7 mph 16.1 mph N/A   Overcast
5:55 AM 35.6 °F 27.1 °F 23.0 °F 60% 30.14 in 10.0 mi SE 12.7 mph 18.4 mph N/A   Scattered Clouds
6:14 AM 35.6 °F 28.6 °F 23.0 °F 60% 30.14 in 10.0 mi SE 9.2 mph - N/A   Mostly Cloudy
6:35 AM 35.6 °F 28.0 °F 23.0 °F 60% 30.15 in 10.0 mi SE 10.4 mph - N/A   Overcast
6:55 AM 35.6 °F 27.5 °F 23.0 °F 60% 30.14 in 10.0 mi SE 11.5 mph - N/A   Mostly Cloudy
7:14 AM 35.6 °F 27.1 °F 23.0 °F 60% 30.15 in 10.0 mi SE 12.7 mph 18.4 mph N/A   Overcast
7:35 AM 35.6 °F 26.6 °F 21.2 °F 56% 30.14 in 10.0 mi SE 13.8 mph - N/A   Mostly Cloudy
8:14 AM 35.6 °F 26.6 °F 21.2 °F 56% 30.16 in 10.0 mi SE 13.8 mph 20.7 mph N/A   Scattered Clouds
8:35 AM 37.4 °F 28.5 °F 21.2 °F 52% 30.15 in 10.0 mi SE 15.0 mph 19.6 mph N/A   Clear
8:55 AM 37.4 °F 28.9 °F 21.2 °F 52% 30.14 in 10.0 mi SE 13.8 mph 21.9 mph N/A   Clear
9:14 AM 37.4 °F 28.5 °F 21.2 °F 52% 30.14 in 10.0 mi SSE 15.0 mph - N/A   Scattered Clouds
9:35 AM 39.2 °F 31.2 °F 23.0 °F 52% 30.14 in 10.0 mi SSE 13.8 mph 18.4 mph N/A   Scattered Clouds
9:55 AM 39.2 °F 30.8 °F 21.2 °F 49% 30.14 in 10.0 mi SSE 15.0 mph - N/A   Clear
10:14 AM 41.0 °F 32.8 °F 21.2 °F 45% 30.13 in 10.0 mi SSE 16.1 mph 25.3 mph N/A   Clear
10:35 AM 42.8 °F 34.5 °F 21.2 °F 42% 30.12 in 10.0 mi SSE 18.4 mph 24.2 mph N/A   Clear
10:55 AM 42.8 °F 35.1 °F 23.0 °F 46% 30.11 in 10.0 mi SSE 16.1 mph 23.0 mph N/A   Clear
11:14 AM 44.6 °F 36.6 °F 23.0 °F 43% 30.11 in 10.0 mi SSE 19.6 mph 24.2 mph N/A   Clear
11:35 AM 46.4 °F 39.5 °F 24.8 °F 43% 30.10 in 10.0 mi SSE 17.3 mph 26.5 mph N/A   Clear
11:54 AM 46.4 °F 39.2 °F 24.8 °F 43% 30.08 in 10.0 mi SSE 18.4 mph 26.5 mph N/A   Clear
12:15 PM 48.2 °F - 24.8 °F 40% 30.07 in 10.0 mi SSE 19.6 mph 25.3 mph N/A   Clear
12:35 PM 48.2 °F - 23.0 °F 37% 30.06 in 10.0 mi SSE 19.6 mph 24.2 mph N/A   Clear
12:54 PM 50.0 °F - 24.8 °F 37% 30.05 in 10.0 mi SSE 18.4 mph 24.2 mph N/A   Clear
1:15 PM 51.8 °F - 24.8 °F 35% 30.03 in 10.0 mi South 18.4 mph 26.5 mph N/A   Clear
1:34 PM 53.6 °F - 24.8 °F 33% 30.03 in 10.0 mi SSE 18.4 mph 27.6 mph N/A   Clear
1:55 PM 53.6 °F - 26.6 °F 35% 30.01 in 10.0 mi SSE 21.9 mph 26.5 mph N/A   Clear
2:15 PM 55.4 °F - 26.6 °F 33% 30.00 in 10.0 mi SSE 19.6 mph 31.1 mph N/A   Clear
2:34 PM 55.4 °F - 26.6 °F 33% 29.98 in 10.0 mi SSE 21.9 mph 32.2 mph N/A   Clear
2:55 PM 57.2 °F - 26.6 °F 31% 29.96 in 10.0 mi South 20.7 mph 26.5 mph N/A   Clear
3:15 PM 57.2 °F - 28.4 °F 33% 29.93 in 10.0 mi SSE 21.9 mph 25.3 mph N/A   Clear
3:34 PM 57.2 °F - 28.4 °F 33% 29.92 in 10.0 mi South 20.7 mph 26.5 mph N/A   Clear
3:55 PM 57.2 °F - 28.4 °F 33% 29.90 in 10.0 mi South 20.7 mph 29.9 mph N/A   Clear
4:15 PM 60.8 °F - 28.4 °F 29% 29.88 in 10.0 mi SSE 18.4 mph 25.3 mph N/A   Clear
4:34 PM 59.0 °F - 28.4 °F 31% 29.86 in 10.0 mi SSE 17.3 mph 27.6 mph N/A   Clear
4:55 PM 60.8 °F - 30.2 °F 31% 29.85 in 10.0 mi SSE 17.3 mph 26.5 mph N/A   Clear
5:15 PM 60.8 °F - 30.2 °F 31% 29.83 in 10.0 mi SSE 23.0 mph 27.6 mph N/A   Clear
5:34 PM 59.0 °F - 30.2 °F 34% 29.82 in 10.0 mi South 20.7 mph 29.9 mph N/A   Clear
5:55 PM 60.8 °F - 30.2 °F 31% 29.82 in 10.0 mi South 20.7 mph 28.8 mph N/A   Clear
6:14 PM 60.8 °F - 30.2 °F 31% 29.82 in 10.0 mi South 17.3 mph 26.5 mph N/A   Clear
6:35 PM 59.0 °F - 30.2 °F 34% 29.81 in 10.0 mi South 15.0 mph 21.9 mph N/A   Clear
6:55 PM 59.0 °F - 30.2 °F 34% 29.81 in 10.0 mi South 18.4 mph 27.6 mph N/A   Clear
7:14 PM 57.2 °F - 30.2 °F 36% 29.81 in 10.0 mi South 16.1 mph 21.9 mph N/A   Clear
7:35 PM 57.2 °F - 30.2 °F 36% 29.81 in 10.0 mi SSE 15.0 mph 18.4 mph N/A   Clear
7:55 PM 57.2 °F - 30.2 °F 36% 29.80 in 10.0 mi SSE 11.5 mph 17.3 mph N/A   Clear
8:14 PM 57.2 °F - 30.2 °F 36% 29.79 in 10.0 mi SSE 13.8 mph 18.4 mph N/A   Clear
8:35 PM 57.2 °F - 30.2 °F 36% 29.79 in 10.0 mi SSE 8.1 mph - N/A   Clear
8:55 PM 57.2 °F - 30.2 °F 36% 29.78 in 10.0 mi SSE 12.7 mph - N/A   Clear
9:14 PM 57.2 °F - 32.0 °F 38% 29.77 in 10.0 mi SSE 13.8 mph 18.4 mph N/A   Clear
9:35 PM 57.2 °F - 32.0 °F 38% 29.74 in 10.0 mi SSE 15.0 mph - N/A   Scattered Clouds
9:55 PM 57.2 °F - 32.0 °F 38% 29.76 in 10.0 mi South 12.7 mph 18.4 mph N/A   Scattered Clouds
10:15 PM 57.2 °F - 33.8 °F 41% 29.75 in 10.0 mi South 13.8 mph 18.4 mph N/A   Scattered Clouds
10:34 PM 59.0 °F - 33.8 °F 39% 29.75 in 10.0 mi South 13.8 mph 24.2 mph N/A   Scattered Clouds
10:55 PM 59.0 °F - 33.8 °F 39% 29.74 in 10.0 mi South 13.8 mph - N/A   Mostly Cloudy
11:15 PM 59.0 °F - 33.8 °F 39% 29.73 in 10.0 mi South 17.3 mph 25.3 mph N/A   Overcast
11:34 PM 59.0 °F - 35.6 °F 42% 29.72 in 10.0 mi South 17.3 mph 25.3 mph N/A   Overcast
11:55 PM 59.0 °F - 35.6 °F 42% 29.72 in 10.0 mi South 16.1 mph 21.9 mph N/A   Overcast